Weather in Bunkovo

Russia / Tyumen Oblast     56°10′22″N   66°07′35″E
temp.,
°C
wind,
m/s
gust,
m/s
humid.,
%
clouds,
%
prec.,
mm/h
press.,
hPa
HPBL,
m
14 may, fri
fri1423:00+17ene22625 0.0 102518
02:00+15e22695 0.0 102514
05:00+14se22745 0.0 102613
08:00+20ssw115416 0.0 1027292
11:00+25wsw223778 0.0 10261131
14:00+28sw353039 0.0 10242528
17:00+29w56286 0.0 10232847
20:00+23sw48445 0.0 1022122
15 may, sat
sat1523:00+20ssw411495 0.0 1022164
02:00+21wsw4124727 0.1 1021322
05:00+16sw37605 0.1 1021100
08:00+23w34435 0.0 1021284
11:00+28wnw573098 0.0 10201642
14:00+29wnw57261 0.0 10192440
17:00+29wnw572852 0.0 10182432
20:00+24sw494231 0.0 1017150
16 may, sun
sun1623:00+20w37480 0.0 1017107
02:00+19w3955100 0.0 1017139
05:00+17wnw346426 0.0 101866
08:00+23w355199 0.0 1018340
11:00+29wnw693417 0.0 10181596
14:00+31wnw71222100 0.0 10172876
17:00+31w6102331 0.0 10173518
20:00+26w512325 0.0 1017260
17 may, mon
mon1723:00+21w493833 0.0 1017123
02:00+19w354739 0.0 101769
05:00+17w23525 0.0 101822
08:00+24wsw35395 0.0 1018307
11:00+29w692664 0.0 10172458
14:00+31wnw710216 0.0 10163324
17:00+31w7102523 0.0 10143572
20:00+25wsw493544 0.0 1013132
18 may, tue
tue1823:00+20wsw4104599 0.0 1013148
02:00+18w37534 0.0 1013119
05:00+16w336836 0.3 101449
08:00+22wnw3550100 0.0 1013368
11:00+26wnw473784 0.0 10131910
14:00+28wnw592764 0.0 10113386
17:00+22wsw12465 0.1 101033
20:00+19n611616 0.4 10131049